Wind_Speed
26 25 24 23 23 22 21 20 20 19 19 19 18 17 15 14 13 12 11 11 11 11 11 12 13 15 15 16 16 15 15 16 18 19 20 22 24 25 27 27 27 28 28 29 29 30 31 31 32 32 29 24 20 14 6 5 11 15 16 16 15 14 13 12 13 13 14 15 16 17 17 16 16 16 17 18 19 20 21 22 22 22 22 22 23 23 23 23
29 28 27 26 25 25 24 23 22 21 21 21 20 20 18 17 15 14 13 12 12 11 11 11 12 14 15 16 16 15 14 14 15 17 18 19 21 23 24 26 26 27 27 28 28 29 29 30 31 32 31 28 24 19 12 4 6 13 18 18 17 16 13 11 10 11 12 14 15 15 15 13 12 13 14 14 15 16 18 18 19 19 20 20 20 21 20 20
32 31 31 30 29 28 27 26 25 24 23 23 22 22 21 20 18 17 15 14 14 13 12 12 12 13 14 15 16 16 14 12 13 14 15 17 18 20 22 24 25 26 26 26 27 28 28 29 29 31 31 31 28 24 20 12 2 6 14 18 18 17 13 10 8 9 10 10 9 9 8 8 8 11 12 12 12 13 13 13 13 14 14 14 14 14 14 14
35 35 34 33 32 31 31 30 28 27 26 25 24 24 23 23 22 20 18 16 15 15 14 13 13 13 13 15 16 17 16 13 12 12 13 15 16 17 19 20 23 24 25 25 25 26 27 28 28 29 31 31 30 28 25 20 12 3 7 13 15 14 12 8 6 8 7 5 3 4 4 4 7 9 11 11 11 10 8 7 6 6 5 5 6 6 6 7
38 38 37 36 36 35 34 33 32 31 30 29 27 26 26 25 24 23 22 20 18 17 16 15 15 14 14 15 16 17 17 15 13 11 12 13 14 15 16 18 20 22 23 24 24 25 26 27 27 28 30 31 32 30 27 25 20 11 3 7 12 11 10 7 6 7 7 5 3 1 2 4 7 9 10 10 8 5 4 3 3 2 1 0 2 3 4 5
41 41 40 39 39 38 37 36 35 35 33 32 31 30 29 28 26 25 25 24 22 20 19 18 17 16 15 15 16 18 19 18 15 12 11 12 13 13 14 15 17 19 20 22 23 23 24 25 26 27 28 30 32 32 30 28 23 16 9 3 9 11 9 8 8 8 8 7 5 3 4 7 9 9 8 7 6 5 5 4 3 3 2 2 3 3 4 5
42 42 42 42 41 41 40 39 38 38 37 36 34 33 32 31 30 28 27 27 26 24 22 21 20 19 18 17 17 18 19 19 18 14 12 11 12 12 12 13 15 16 17 19 21 22 23 23 25 26 27 28 30 32 31 29 26 18 11 5 7 9 9 9 10 10 9 7 6 5 6 8 9 8 8 7 6 5 3 3 2 2 2 2 3 4 5 6
43 43 43 43 43 43 43 42 41 40 39 38 37 36 35 34 33 32 31 29 29 28 26 24 23 22 20 19 19 19 20 21 20 17 14 13 12 12 11 12 13 14 15 17 18 20 21 22 23 24 25 25 27 30 31 29 27 22 14 7 5 8 10 10 11 10 8 6 5 5 6 8 8 8 9 9 7 5 3 3 2 1 1 1 3 5 6 7
44 44 44 44 44 44 44 43 43 42 42 41 40 39 38 37 36 35 34 33 32 31 30 28 26 25 23 22 21 21 21 22 22 20 17 15 13 13 12 11 11 13 14 14 16 17 19 20 21 22 23 24 25 27 30 29 26 24 19 12 10 12 12 11 11 9 7 5 3 4 5 7 8 8 8 8 7 6 4 2 1 1 0 1 2 4 5 6
46 46 45 45 45 44 44 44 44 43 43 42 41 41 40 40 38 37 36 36 35 35 33 32 30 29 27 25 24 23 23 24 24 22 20 17 15 14 13 12 12 12 13 13 14 15 17 18 19 20 21 22 23 24 27 27 25 23 22 19 20 20 16 12 10 9 6 3 2 3 3 6 7 7 6 6 7 5 3 1 1 1 1 1 1 1 2 3
50 49 48 47 47 46 46 45 45 44 44 43 42 42 42 42 40 40 39 39 39 38 37 36 34 33 31 29 27 25 25 27 26 24 23 20 17 16 15 14 13 12 12 13 13 13 14 16 17 18 19 20 21 22 24 25 24 23 23 24 26 25 20 14 9 8 5 2 2 1 2 4 5 6 6 5 6 4 3 2 2 3 3 4 4 3 3 2
54 53 52 51 50 49 48 48 47 46 45 43 42 42 42 42 41 41 41 41 41 40 40 39 38 36 34 33 30 28 29 30 27 25 25 23 20 18 17 16 15 14 13 12 12 12 13 13 15 16 17 17 18 20 21 23 23 22 23 25 27 25 21 15 9 5 3 1 1 2 2 2 3 5 6 5 5 4 4 4 4 5 6 6 6 7 7 6
58 57 56 55 54 53 52 51 50 48 46 45 44 43 43 42 42 41 41 41 42 42 42 41 41 39 38 36 31 32 34 32 30 27 26 26 23 20 19 18 17 16 14 13 13 12 12 12 12 13 15 15 15 17 18 20 20 20 21 24 25 23 19 15 10 5 2 1 2 3 2 2 2 4 5 5 6 6 6 6 6 7 8 8 9 9 10 10
61 61 60 59 58 57 56 55 54 52 50 47 46 45 45 44 43 42 42 42 41 41 41 42 41 40 42 39 34 38 38 33 31 29 28 28 26 23 21 20 19 18 16 15 14 12 12 13 11 11 12 13 13 13 15 17 17 17 19 22 24 21 17 13 10 7 4 2 2 2 3 2 3 5 6 7 7 7 7 6 6 7 8 9 10 11 12 12
65 65 64 63 62 61 60 59 58 56 53 51 50 49 49 48 46 44 44 43 42 41 41 41 41 41 43 39 37 42 40 34 33 32 31 30 29 26 23 22 21 21 19 17 17 14 12 13 12 10 10 11 12 11 12 13 13 14 16 19 21 19 16 13 9 7 6 5 4 5 6 4 4 5 7 7 6 6 6 5 6 7 8 9 10 11 12 12
69 69 68 67 66 65 64 64 63 60 57 55 54 53 53 52 50 48 47 46 45 43 41 41 41 41 43 39 39 44 42 35 34 35 35 33 33 30 26 25 24 22 21 19 19 16 14 14 13 11 10 10 11 11 10 10 11 12 13 15 17 16 15 13 11 9 7 6 6 8 9 7 5 6 8 7 5 5 5 5 6 7 8 9 10 10 10 10
72 72 72 71 70 69 68 68 67 65 62 59 58 57 57 57 55 53 52 50 48 46 44 44 43 43 44 39 40 44 41 36 36 39 39 37 36 33 30 29 26 24 23 22 22 19 16 16 14 12 11 10 10 10 9 8 8 9 10 11 12 13 12 11 11 11 10 8 8 10 10 8 6 6 7 7 5 5 5 6 7 8 8 8 8 7 7 6
74 74 74 74 73 73 72 72 71 69 66 64 62 62 61 61 60 57 56 54 53 50 48 48 46 46 46 42 41 44 41 36 36 40 41 40 39 37 34 31 28 26 25 25 25 22 19 18 17 15 13 12 11 10 9 7 6 6 7 7 8 8 8 8 7 8 9 9 9 11 11 10 8 7 7 6 6 6 7 7 8 8 7 7 6 6 5 4
75 76 76 76 76 76 75 75 75 73 71 68 66 66 65 65 64 62 61 59 57 55 53 51 50 49 50 46 43 45 43 38 38 41 41 40 40 39 37 34 32 29 28 29 29 25 22 21 20 18 15 14 12 11 10 8 7 5 3 4 4 5 5 5 5 4 5 6 6 8 10 11 9 8 7 7 6 6 7 8 7 6 4 4 4 4 4 3
77 78 78 78 78 78 78 78 78 77 75 72 70 70 69 68 67 66 65 64 61 59 57 55 54 54 54 51 47 47 45 41 41 42 42 41 40 40 38 36 35 33 32 34 32 28 25 26 25 21 18 16 14 13 11 10 9 8 5 2 1 2 2 2 2 3 3 4 4 4 7 9 8 6 6 6 6 5 6 6 5 4 3 3 3 4 4 3
75 77 79 80 81 80 80 80 80 79 78 76 74 73 73 72 71 70 69 69 66 63 62 60 58 58 58 55 51 50 49 44 44 45 44 42 41 40 38 37 37 36 37 37 35 31 29 31 30 24 21 18 17 16 14 13 12 11 9 6 4 2 1 0 0 1 2 3 3 3 4 6 6 4 3 3 4 4 5 5 4 3 3 3 3 3 3 3
69 72 75 78 80 82 81 82 83 82 81 80 78 77 76 76 75 73 73 73 72 68 67 65 61 62 63 59 56 54 52 49 49 49 46 45 43 42 40 38 38 39 40 39 37 34 34 38 34 26 24 21 20 19 16 16 15 14 13 10 8 6 3 2 2 2 1 1 2 2 3 4 3 1 1 1 2 3 4 4 3 3 2 2 3 2 2 3
61 64 68 72 76 79 80 82 84 84 84 83 82 80 79 78 78 77 75 77 77 73 71 69 67 68 68 63 59 57 56 55 55 53 50 48 46 44 42 40 39 41 41 39 38 38 40 43 37 29 26 25 23 22 20 19 18 17 16 14 13 11 7 5 4 3 3 1 0 0 0 1 1 1 1 1 1 1 1 2 2 1 1 0 1 1 2 2
54 57 61 64 69 72 75 78 81 83 84 85 85 84 82 81 80 79 78 78 82 79 73 72 73 73 72 67 63 60 60 61 59 57 54 53 51 48 45 43 42 42 41 41 41 41 45 46 38 31 29 28 27 25 24 23 22 20 19 17 16 14 11 9 7 5 5 4 3 2 2 2 2 2 2 2 2 2 1 1 1 2 2 2 2 3 3 4
50 52 54 58 61 65 68 71 75 78 81 84 85 86 85 85 83 82 80 79 84 85 79 75 76 77 76 72 67 65 66 65 64 63 59 57 56 53 50 47 45 43 43 43 42 43 48 48 39 34 32 31 31 29 29 28 25 24 22 21 19 16 14 14 11 8 7 6 6 5 4 4 4 4 4 4 4 4 3 3 3 3 3 4 4 5 5 5
49 49 51 53 55 59 62 65 68 72 75 79 82 84 86 87 86 84 83 81 84 89 85 79 78 80 80 76 71 69 69 69 70 68 63 61 61 58 55 51 48 47 46 45 43 44 50 49 40 36 35 34 34 33 33 32 29 28 27 24 21 17 16 17 15 12 10 7 8 8 6 6 6 6 7 7 7 7 6 5 6 6 6 6 6 7 7 7
51 50 50 51 51 54 57 59 62 65 69 73 76 80 82 85 86 86 85 84 86 91 90 84 81 81 82 79 75 72 72 74 75 71 66 65 65 62 58 55 52 51 49 48 44 44 51 50 42 38 38 37 36 36 37 36 33 34 31 26 23 20 18 19 18 17 13 10 11 11 9 8 8 8 8 8 9 10 9 8 8 8 9 9 9 9 9 9
55 53 53 52 50 51 53 55 56 58 63 68 71 74 77 81 83 84 86 85 88 94 93 88 85 82 82 82 79 75 75 78 78 73 70 69 68 66 62 58 57 56 54 51 47 46 53 53 45 42 41 39 39 41 41 38 38 38 34 28 25 23 20 20 20 20 17 14 15 15 12 10 10 10 9 8 10 11 11 11 10 10 10 10 10 10 10 10
57 56 56 55 52 51 53 53 51 52 57 63 67 69 72 75 77 80 82 83 89 95 94 91 88 85 83 83 82 78 77 80 80 77 75 73 71 68 65 63 62 60 58 54 51 52 55 55 49 44 41 40 42 44 43 41 41 41 35 30 28 25 22 21 21 22 19 17 21 21 16 14 12 12 11 10 11 12 12 12 12 13 13 11 11 11 11 11
58 58 58 58 56 54 55 52 49 49 52 57 61 65 68 70 72 74 76 79 86 93 94 93 91 88 86 85 84 82 80 82 83 80 78 76 74 72 70 68 65 63 60 57 55 55 57 57 52 45 42 42 45 46 44 43 45 42 35 32 31 28 26 24 23 23 20 21 27 25 21 18 15 15 15 12 12 14 14 15 15 16 16 15 14 13 13 13
59 59 59 59 59 57 56 53 49 49 51 52 56 61 63 66 68 69 70 75 83 88 91 92 92 91 89 87 86 84 84 85 84 82 80 79 78 75 73 71 68 65 62 59 57 57 58 58 54 48 45 44 46 47 45 45 47 42 35 34 33 31 29 27 27 25 23 27 32 29 25 22 20 19 17 15 16 17 16 18 18 18 18 18 17 16 15 16
59 59 59 59 60 60 58 54 52 51 52 52 53 56 59 61 62 63 66 73 79 83 86 89 90 91 90 90 89 87 87 87 86 84 82 82 80 78 76 74 71 68 65 62 60 59 58 58 56 52 49 47 47 48 46 46 48 44 38 36 35 34 32 30 30 29 28 33 35 30 27 26 25 22 21 20 20 19 19 21 22 21 20 20 19 18 18 18
60 60 60 60 59 61 60 58 56 54 54 54 52 52 55 56 54 56 62 69 75 78 81 83 86 88 90 92 91 90 89 89 88 86 85 84 83 81 79 77 75 72 69 67 65 62 60 61 60 56 52 49 48 49 47 46 48 47 42 39 38 37 36 34 34 34 34 36 37 32 27 28 29 27 25 25 23 22 23 24 25 24 24 24 23 22 21 21
60 61 61 61 59 59 61 61 59 57 56 56 54 51 51 49 49 54 59 66 73 75 76 78 81 84 87 91 92 92 92 91 91 89 88 86 85 83 82 80 77 75 72 71 69 67 65 65 63 59 55 52 50 49 49 49 50 50 47 43 41 40 39 38 38 38 38 39 38 33 27 29 34 30 26 27 28 27 27 28 28 28 28 28 27 26 25 24
61 61 61 62 60 59 60 62 61 60 57 57 57 52 47 47 50 55 58 64 69 71 72 74 77 80 83 88 91 92 93 94 93 92 90 88 86 85 83 82 80 77 76 74 71 70 69 67 66 63 60 58 55 54 54 54 52 52 50 46 41 41 43 43 42 41 41 39 37 34 29 31 36 32 28 30 32 31 31 31 31 31 31 32 31 30 29 28
63 62 62 62 61 59 59 61 63 62 59 59 58 53 50 51 54 55 57 61 65 68 69 71 73 76 80 83 87 91 93 95 95 94 92 90 88 86 85 84 82 80 78 76 74 72 70 68 68 68 64 62 61 60 60 60 56 55 53 47 43 46 48 47 44 43 42 39 37 36 32 33 36 34 33 33 34 34 34 33 33 33 35 36 35 34 33 31
64 64 63 62 62 61 60 60 63 63 61 59 57 54 55 56 56 57 58 59 61 65 66 67 70 73 77 80 83 87 91 94 96 95 94 92 90 88 87 86 84 82 80 79 77 75 73 71 71 71 68 64 64 63 63 63 60 58 55 50 50 53 51 47 45 43 42 39 37 38 36 35 36 36 37 37 37 37 36 35 35 35 38 39 39 38 36 34
66 66 65 63 62 62 62 62 63 64 63 60 56 56 57 58 60 61 60 58 58 60 61 63 67 71 75 77 80 84 88 92 95 96 96 94 91 89 88 87 86 84 83 82 79 77 76 74 75 76 72 70 69 68 66 65 62 59 56 55 56 55 50 46 44 42 42 40 39 39 39 36 36 38 40 40 39 40 38 36 36 37 39 41 40 40 39 38
67 67 67 65 64 63 63 64 64 64 63 60 57 57 58 61 64 64 61 57 56 57 58 59 63 68 72 75 79 82 85 89 93 95 95 95 92 91 90 89 88 87 86 85 82 80 78 76 77 78 77 75 75 72 67 65 64 62 60 60 59 56 51 48 46 43 42 40 39 40 40 37 37 40 42 41 41 41 40 39 39 39 41 42 42 42 41 41
68 69 68 67 66 65 64 65 65 64 63 60 59 59 59 61 64 65 62 58 56 56 55 56 60 64 69 74 78 81 83 87 90 92 94 94 93 93 92 91 90 89 89 87 85 82 80 78 77 79 80 79 77 72 65 64 67 66 64 63 61 59 55 52 49 46 44 42 41 41 40 39 40 43 43 42 42 43 43 42 42 42 43 44 44 44 44 44
70 70 69 69 68 67 65 64 65 65 63 61 60 60 61 61 63 65 64 60 56 55 54 53 56 60 66 72 77 81 83 85 88 90 91 92 93 94 95 93 92 91 91 89 86 84 81 79 78 80 82 79 75 71 67 68 71 70 67 65 64 62 60 57 54 50 47 45 43 43 42 42 44 46 45 44 44 45 45 44 43 43 45 46 47 46 46 47
71 71 70 69 69 68 66 64 64 65 64 61 60 61 62 62 63 64 64 62 58 56 54 53 54 58 64 71 77 82 83 83 86 87 88 90 92 95 96 95 94 93 92 90 87 85 83 81 80 82 81 77 75 74 72 72 75 74 70 67 66 66 63 60 56 53 51 48 46 46 44 43 45 47 46 45 44 45 45 44 44 44 46 48 48 48 48 49
71 71 70 68 68 69 66 64 64 64 63 63 62 62 62 62 63 64 65 64 62 61 57 53 53 57 63 70 77 81 81 81 84 85 86 88 90 94 97 97 95 94 93 90 88 87 86 84 82 81 80 79 78 79 77 76 77 76 71 66 65 65 62 60 57 56 55 52 49 49 45 42 44 47 46 44 44 44 45 45 46 46 48 49 49 49 50 50
72 72 71 68 68 69 67 65 64 63 63 63 63 62 62 62 63 64 66 67 66 64 59 54 54 57 61 68 75 78 79 80 82 84 84 85 87 91 96 98 97 95 93 90 88 88 88 85 82 82 83 83 82 82 80 76 76 74 69 65 65 65 64 63 61 60 58 55 52 50 44 41 44 47 47 46 46 46 47 47 48 49 50 50 50 50 51 51
74 73 73 70 69 70 69 67 66 64 64 64 63 63 63 63 63 65 68 70 68 66 61 55 54 57 61 66 72 76 78 80 81 83 83 84 85 89 94 98 98 96 93 90 89 90 89 86 85 84 85 84 82 79 75 72 72 72 69 66 66 66 66 66 64 63 60 56 55 52 47 45 47 49 50 50 49 49 49 49 50 51 51 50 50 50 51 52
78 77 77 74 73 73 72 70 69 67 66 65 65 65 65 65 65 67 69 71 70 69 64 58 55 57 59 63 67 73 77 78 79 81 83 84 84 87 92 97 98 96 93 91 91 92 91 89 87 86 85 83 80 76 73 73 73 73 71 68 68 68 69 69 68 65 61 59 58 55 52 51 52 52 53 52 52 52 51 51 52 53 52 50 50 51 52 53
83 82 82 80 77 76 76 74 72 71 69 68 67 67 68 67 67 68 70 71 72 71 68 61 57 57 59 61 64 69 74 76 78 80 83 84 84 86 90 94 96 96 94 93 93 93 92 90 88 87 85 83 80 78 78 78 77 75 73 72 72 72 73 74 71 66 63 62 60 57 56 55 54 54 54 54 54 53 52 53 54 53 52 51 51 52 53 54
88 87 87 86 83 80 79 78 76 74 73 72 71 71 71 71 71 71 72 72 73 74 72 66 60 58 58 60 62 66 71 74 75 78 81 83 83 85 89 93 95 97 97 96 95 94 92 89 88 87 86 83 82 81 82 81 80 78 77 76 75 76 76 75 72 68 66 65 61 58 59 58 55 56 55 55 55 54 53 55 54 53 52 52 54 54 54 55
91 91 90 90 88 84 83 81 80 78 76 76 76 76 75 75 75 74 73 74 75 76 75 70 64 60 59 59 60 62 67 71 73 75 79 82 83 85 89 91 93 96 98 97 96 94 92 89 87 87 86 84 83 83 83 83 82 80 79 78 78 77 77 76 74 71 68 66 62 61 61 60 57 57 56 55 54 54 54 54 54 54 54 55 56 57 57 57
93 93 92 92 91 89 87 84 83 82 81 81 81 81 79 78 77 76 75 75 76 77 76 73 68 62 59 58 58 60 64 69 72 73 77 81 83 85 88 90 90 93 97 97 97 95 92 88 86 87 86 85 85 84 84 84 83 81 80 79 79 79 78 77 75 72 70 67 64 63 63 61 58 57 56 55 55 54 54 55 55 55 56 57 59 60 59 59
95 94 94 93 93 93 91 88 86 86 86 86 85 84 82 81 79 78 77 77 78 78 77 76 71 64 59 58 57 58 62 66 69 72 76 81 83 85 88 88 88 92 95 97 97 95 91 88 87 88 87 85 85 85 84 83 83 83 82 80 80 79 78 76 74 73 71 68 66 66 63 60 58 58 58 58 57 55 55 56 56 57 57 59 60 61 61 61
95 95 95 95 95 95 94 93 90 89 89 89 88 86 84 83 81 80 79 78 79 79 78 77 73 66 61 58 57 57 60 63 67 71 76 80 83 85 87 87 87 90 94 96 97 95 92 89 89 89 87 83 82 84 84 85 87 85 82 79 79 78 76 76 75 73 71 69 68 65 62 59 59 60 59 58 57 56 56 57 59 59 60 60 62 62 63 63
Wind_Direction
249 250 251 252 253 254 255 257 259 263 266 269 270 271 271 274 279 286 295 301 309 317 326 334 337 340 345 349 355 8 19 24 26 27 29 31 31 31 31 30 31 33 34 34 35 34 34 34 33 33 35 37 35 29 14 262 236 231 228 220 215 221 230 239 245 246 247 245 241 238 238 241 248 254 256 257 257 259 261 264 267 270 272 273 275 277 277 277
248 249 250 251 252 253 254 255 256 259 262 266 269 271 271 271 272 276 283 291 296 303 311 319 326 331 335 338 342 350 4 15 20 22 24 28 30 29 30 29 29 30 31 32 32 32 32 32 32 32 33 36 36 33 27 354 242 229 230 228 220 218 221 232 244 250 250 246 240 238 240 245 254 261 262 261 261 262 263 266 269 271 274 276 278 280 280 281
247 248 248 249 250 251 253 253 254 255 258 261 265 269 271 272 272 271 273 280 287 292 298 305 312 320 326 329 332 335 345 360 10 15 18 22 26 27 28 29 28 27 29 29 30 30 30 30 31 31 31 33 36 36 33 29 11 220 224 227 224 219 217 221 234 244 242 238 239 242 247 256 264 265 262 259 258 257 258 261 265 269 273 277 280 282 283 284
248 248 248 247 248 249 250 251 252 253 254 256 259 263 267 270 272 272 271 271 276 284 289 294 299 307 315 319 323 325 329 341 354 3 11 14 19 23 25 26 27 26 26 27 27 29 29 28 28 29 30 30 34 38 38 37 38 46 213 215 212 212 210 206 216 222 212 202 224 258 266 268 264 257 250 246 242 239 241 246 252 259 267 277 282 288 294 293
251 250 249 248 248 248 248 249 249 250 251 252 254 257 261 265 268 271 272 270 269 273 280 285 290 296 302 309 313 315 318 324 335 348 359 5 10 16 20 22 24 24 24 25 25 26 27 27 26 27 28 28 30 37 41 41 43 46 58 198 192 195 197 183 188 185 162 149 153 226 245 224 227 231 228 220 210 190 169 174 174 169 155 13 330 328 321 311
254 253 252 251 250 249 249 248 248 248 249 250 251 252 255 258 261 265 268 270 269 268 272 276 281 287 291 297 303 306 309 313 319 330 342 352 358 5 12 16 18 21 22 23 23 24 26 26 26 25 27 28 27 32 39 43 45 50 60 142 189 190 179 162 159 146 130 130 130 150 181 182 193 201 193 173 150 128 125 133 134 122 87 37 356 332 313 302
256 255 255 254 253 252 251 250 250 249 249 249 249 250 251 253 256 259 262 265 267 267 267 270 273 277 282 287 291 296 301 304 307 314 325 335 343 351 2 9 11 13 16 20 21 22 24 25 26 25 25 28 28 27 33 41 44 49 65 106 184 181 157 142 136 123 119 120 122 154 175 171 173 166 141 125 122 117 122 132 133 117 73 24 330 304 291 283
258 257 257 256 256 255 254 253 252 251 251 250 250 250 251 251 252 254 257 260 263 264 264 265 267 270 274 278 282 287 291 295 298 302 309 318 326 335 346 358 3 4 7 15 18 19 21 23 25 25 24 26 30 28 28 36 43 45 54 81 137 141 125 121 118 110 108 108 124 157 168 164 156 138 121 118 127 134 144 154 160 145 102 318 298 287 279 273
260 260 259 258 257 256 256 255 254 253 252 252 252 251 251 251 252 252 254 256 258 260 261 261 262 263 266 269 273 278 283 287 290 294 298 304 312 320 330 342 352 355 357 5 13 15 17 21 22 24 24 24 30 32 28 30 38 45 48 58 80 93 97 103 105 102 103 108 131 138 147 156 142 126 121 123 135 143 153 163 146 125 140 285 288 288 284 278
260 260 260 259 259 258 257 256 256 255 253 253 252 252 252 252 252 252 252 253 255 256 258 259 259 259 260 262 265 269 275 279 282 286 289 293 301 308 316 326 334 341 346 352 3 9 12 17 18 20 23 23 27 33 31 27 29 39 45 49 58 66 72 84 93 92 96 107 105 108 143 160 147 132 126 129 138 146 159 152 105 109 117 111 82 351 325 306
259 259 259 259 259 259 258 257 256 256 255 254 253 253 253 253 252 252 252 252 253 254 255 256 257 257 257 258 258 263 268 271 273 278 283 286 291 297 304 312 318 325 333 340 349 359 4 11 15 16 20 22 25 31 32 27 23 30 38 43 50 54 55 60 74 80 82 101 115 137 196 177 164 147 137 134 133 140 152 153 140 127 118 106 96 82 66 40
258 259 258 258 258 258 258 258 257 256 255 254 253 252 252 252 252 251 251 252 252 253 253 253 254 255 256 256 256 258 260 262 266 271 276 279 282 288 294 300 306 311 318 327 335 345 352 0 11 12 15 19 24 30 31 26 20 23 34 41 46 50 49 50 58 77 87 118 166 221 208 166 159 142 140 132 126 144 162 163 157 133 111 95 87 84 78 72
258 258 258 258 257 257 257 257 257 256 255 254 253 252 252 251 251 251 251 251 251 252 252 253 253 254 255 256 255 256 256 258 261 264 269 274 277 280 285 291 297 299 304 313 321 330 337 344 0 6 8 13 20 30 33 27 19 19 31 41 46 48 47 47 54 74 128 194 237 233 181 149 142 135 136 127 130 158 170 168 157 132 109 93 86 84 80 79
258 258 257 257 257 257 257 256 256 256 255 254 253 252 251 251 250 251 251 251 250 250 251 252 253 253 254 255 255 256 256 256 258 261 264 268 271 273 277 283 288 291 294 303 308 315 323 327 341 354 360 4 10 24 35 32 21 19 29 40 48 51 47 46 53 70 100 160 228 200 145 140 141 135 131 127 140 164 173 167 148 125 107 92 88 86 83 84
258 258 258 257 257 256 256 256 255 255 255 254 253 252 252 251 250 249 250 250 250 250 250 251 252 253 254 254 255 256 257 256 257 259 260 263 265 266 270 275 279 282 286 293 296 300 308 313 321 334 346 353 356 9 30 36 28 23 29 39 48 54 54 51 57 76 105 129 121 100 98 107 130 134 131 135 153 170 168 157 135 120 105 89 86 87 86 86
259 258 258 257 257 256 256 255 255 255 254 253 253 252 252 251 250 249 249 249 250 250 250 250 251 252 253 252 253 255 256 256 256 257 257 258 259 260 263 265 268 273 279 285 287 288 294 300 306 314 325 336 343 351 11 31 33 29 32 40 47 51 53 54 57 69 88 109 103 94 99 109 124 131 138 151 170 171 156 141 127 118 106 92 83 82 82 85
259 259 258 258 257 256 256 255 255 255 254 253 252 251 252 252 251 249 248 248 248 249 250 251 251 251 252 251 251 254 255 254 255 256 255 255 256 257 257 258 260 265 271 276 277 279 283 288 292 297 305 314 324 335 348 12 28 35 37 41 49 52 50 48 50 58 66 81 92 96 104 110 113 120 137 157 165 149 129 117 117 118 117 106 94 86 80 81
259 259 258 258 257 257 256 256 255 255 254 252 251 251 250 251 251 250 249 248 247 248 248 250 251 251 252 250 250 253 253 253 254 255 255 255 256 257 257 257 258 260 264 268 269 272 275 278 281 282 290 296 303 315 326 341 358 23 42 44 51 58 57 50 46 54 62 71 85 93 99 101 101 104 118 135 137 123 106 98 98 104 110 110 103 96 93 94
259 259 259 258 258 257 256 256 256 255 254 252 251 251 250 250 250 250 249 249 247 247 247 248 249 251 252 250 248 251 253 251 252 253 254 256 257 258 258 258 258 258 260 263 265 266 269 272 272 273 277 282 287 295 305 315 320 332 16 45 55 65 68 66 60 60 65 66 72 86 93 95 97 100 107 117 118 108 100 95 88 81 80 86 88 85 88 88
258 258 258 258 258 257 257 256 255 255 255 253 252 251 250 249 249 249 249 249 248 247 246 246 247 249 250 250 249 250 251 250 250 251 253 254 255 256 257 256 257 256 257 259 261 262 265 267 265 264 266 271 277 281 287 295 298 300 305 323 43 86 78 69 72 70 71 66 57 69 87 93 96 102 113 122 122 114 104 102 97 85 70 67 65 66 72 67
258 258 257 257 257 257 257 257 256 255 254 253 252 251 250 250 249 248 248 248 247 247 247 245 245 248 249 249 249 249 250 250 250 250 251 251 252 253 254 254 254 255 254 256 259 260 262 263 260 258 261 264 269 272 276 281 284 286 284 279 266 226 150 91 354 51 73 73 68 71 90 101 105 105 120 137 137 134 124 117 111 94 78 67 62 56 61 67
260 259 258 257 256 255 255 255 256 256 255 254 252 251 250 250 250 249 248 249 247 246 246 246 245 247 248 247 247 249 250 250 249 249 249 250 250 251 252 251 252 252 253 254 258 259 259 259 257 254 257 260 263 266 269 272 274 277 276 274 270 259 232 223 261 270 257 84 73 78 96 120 131 141 228 196 153 148 138 130 123 104 81 72 67 59 47 54
261 260 259 258 257 256 254 254 254 254 255 254 253 251 250 249 249 249 249 249 249 245 244 246 245 246 246 245 246 248 249 249 249 249 249 249 249 249 249 249 248 250 251 253 255 255 255 256 255 253 255 258 260 262 264 265 266 268 270 270 268 266 259 240 239 257 259 249 232 70 90 148 176 213 262 270 261 195 165 145 145 152 144 90 42 349 338 353
262 261 260 259 258 257 255 254 253 253 253 253 253 252 251 250 248 248 248 248 250 247 244 244 245 245 245 244 245 246 247 248 249 249 248 249 249 249 249 248 247 247 249 250 251 253 254 255 256 255 255 257 258 259 260 260 259 261 263 265 265 267 266 257 245 245 253 257 255 254 266 277 277 283 279 274 285 292 283 255 230 223 236 266 293 303 311 325
266 263 261 260 259 258 256 255 254 253 252 252 252 251 251 250 249 248 247 246 249 249 245 242 244 245 245 244 243 244 246 247 248 248 247 247 248 247 247 247 247 247 247 248 249 251 254 255 255 254 254 254 255 256 257 257 256 257 256 257 259 262 265 264 256 245 246 254 257 253 256 272 283 291 290 287 285 284 284 284 279 270 268 276 289 299 309 317
273 270 266 263 261 259 257 255 255 254 253 252 251 250 250 249 249 248 247 246 247 249 248 243 242 244 246 244 243 244 246 246 247 247 246 247 247 246 245 245 246 247 247 247 247 249 253 255 255 254 252 252 253 255 256 256 255 255 252 249 251 255 259 263 263 257 249 247 254 254 252 258 269 278 285 291 288 282 281 282 284 283 283 285 289 295 302 308
280 277 273 269 266 263 259 256 254 254 254 253 252 251 249 249 248 247 246 245 246 248 248 245 243 243 245 245 243 242 244 245 246 246 246 245 246 245 244 244 244 246 246 247 247 248 252 254 253 251 250 249 251 252 253 252 252 252 248 245 246 248 251 257 263 263 257 250 250 251 248 249 253 259 268 279 282 282 285 284 280 280 282 285 287 292 296 300
284 282 279 276 272 269 265 259 255 253 253 253 252 251 250 249 248 246 245 244 244 246 246 246 244 242 243 245 244 242 242 245 246 246 245 244 245 245 244 243 243 244 244 245 244 244 249 251 249 247 247 246 247 248 249 249 250 250 247 245 245 245 246 251 257 261 262 261 257 250 244 244 248 252 254 261 270 276 282 284 282 277 274 277 282 286 290 294
284 283 282 280 277 274 271 265 259 255 253 253 252 251 250 250 248 247 245 243 243 244 244 245 245 243 242 243 243 242 241 243 245 245 244 244 244 244 244 242 242 242 242 243 243 243 247 250 249 248 247 245 245 247 249 249 249 250 248 247 246 245 245 247 252 258 260 262 260 255 247 241 245 252 250 248 257 266 272 275 276 275 276 276 278 282 286 288
283 283 282 282 280 278 275 271 266 261 256 253 252 250 249 249 248 247 245 243 242 243 243 243 243 243 241 241 242 241 240 241 243 243 243 244 244 243 243 242 241 241 241 242 243 244 248 250 251 250 248 245 246 248 249 249 250 251 250 249 249 248 246 245 248 253 255 257 256 255 254 249 247 250 250 248 253 258 262 263 264 268 273 274 275 278 281 282
281 281 281 281 281 279 277 275 272 267 260 255 252 250 248 247 247 247 245 243 242 242 242 242 242 242 241 240 240 240 240 240 242 242 242 243 243 243 243 243 242 241 241 242 244 246 248 251 252 252 248 246 248 250 249 250 252 253 251 251 251 250 248 247 247 249 250 253 253 252 254 253 249 249 251 251 251 254 258 259 259 260 263 266 270 273 275 275
279 279 279 279 280 279 279 278 275 270 265 260 254 250 248 246 246 246 244 242 242 243 242 242 241 240 240 240 239 239 239 240 241 241 241 242 242 242 242 242 242 241 240 242 245 247 248 251 252 250 247 246 248 249 248 250 253 254 251 250 250 250 249 247 247 246 245 250 252 251 250 253 251 250 251 250 250 253 258 260 260 259 258 260 263 266 268 272
278 277 277 277 277 278 279 278 275 272 269 265 258 252 250 247 246 247 246 243 243 243 243 242 241 240 239 239 239 238 238 239 240 240 240 241 241 241 241 241 240 240 239 239 241 243 244 246 247 247 246 245 246 248 248 248 251 252 249 247 247 247 247 245 245 244 243 247 251 250 250 256 255 250 250 253 254 255 258 260 261 261 261 259 260 261 264 268
277 276 275 275 275 277 277 277 275 273 271 268 264 257 252 251 251 253 249 245 244 244 243 242 241 240 239 238 238 237 236 237 238 239 239 240 240 241 241 241 241 240 239 238 239 240 241 244 245 245 244 243 243 245 246 245 246 248 247 243 242 244 245 244 243 243 243 245 250 251 251 257 258 254 254 256 256 255 257 261 263 263 264 263 262 262 263 266
277 275 274 274 274 274 275 275 275 273 271 270 267 262 257 256 257 257 251 245 244 243 242 241 241 240 239 237 237 236 235 235 236 236 237 238 239 240 240 241 241 240 240 239 239 240 242 244 245 244 242 240 239 239 241 241 242 244 245 243 242 244 244 243 241 242 244 245 248 251 250 254 260 261 260 260 259 258 258 261 263 266 268 268 267 266 267 268
277 275 273 273 273 272 272 273 273 273 271 269 269 267 263 260 259 258 253 246 244 243 241 240 240 240 239 238 237 236 235 235 234 235 235 236 236 238 238 239 239 239 239 239 239 239 240 242 243 244 242 241 240 239 239 240 240 241 243 242 241 241 241 240 239 240 243 244 246 249 248 250 257 262 261 261 262 261 261 262 265 268 269 270 270 270 271 273
276 274 272 272 271 270 270 270 271 272 271 269 269 267 264 262 260 258 254 248 244 243 241 239 238 238 238 238 237 236 235 234 234 234 234 234 234 235 237 238 238 238 238 238 238 238 238 238 240 242 241 240 240 239 239 241 241 241 242 240 240 241 241 240 240 240 243 244 244 246 246 246 251 257 259 259 261 262 263 265 267 269 270 271 273 273 273 274
275 273 272 270 269 269 269 268 269 269 269 269 268 265 262 261 260 258 254 249 246 244 242 240 237 236 237 237 237 236 235 234 234 233 233 233 233 234 235 236 237 238 237 237 237 237 237 237 239 241 240 239 238 238 239 241 243 243 243 242 244 246 245 244 243 242 243 243 243 245 246 246 247 252 255 257 259 262 264 265 266 268 270 272 274 275 275 274
275 272 271 270 268 267 267 267 267 267 268 268 266 262 260 258 258 258 256 252 249 247 244 241 238 235 235 236 236 235 234 234 233 232 232 231 231 232 233 234 235 236 236 236 236 235 235 236 239 241 241 240 240 240 240 242 244 244 243 244 247 248 247 246 245 244 243 244 244 245 247 248 248 250 253 255 257 260 262 263 264 265 268 270 272 274 275 275
274 271 269 268 267 265 265 265 265 265 265 264 262 260 259 257 258 259 258 255 252 250 247 243 239 236 234 234 235 235 234 234 233 232 231 230 229 230 231 232 233 234 235 236 236 235 234 234 236 239 241 241 242 243 242 242 244 243 242 243 245 246 246 245 245 243 242 242 242 244 245 247 248 250 251 252 254 256 258 259 261 263 266 268 270 272 274 275
273 270 268 266 265 264 263 263 263 262 262 261 260 259 257 256 256 258 259 257 255 253 250 247 242 237 233 232 233 234 233 232 233 232 230 229 228 228 229 230 231 232 233 234 235 235 235 234 235 237 240 241 242 243 241 240 242 241 240 240 242 243 243 244 244 243 242 241 240 240 240 241 244 247 248 249 250 252 254 256 259 261 264 266 268 270 271 273
272 269 267 265 264 263 261 261 260 260 260 258 256 255 255 255 255 257 259 259 257 255 253 249 243 237 234 232 231 233 232 231 232 231 230 229 227 228 229 229 229 230 232 233 233 234 234 234 233 236 239 240 240 241 239 239 241 241 240 240 242 244 245 246 247 246 244 243 241 240 240 240 243 246 248 249 250 252 255 257 259 260 262 265 267 269 270 272
272 269 266 263 262 261 260 259 258 258 257 256 254 253 253 254 255 257 258 259 258 256 253 249 244 238 234 232 231 232 232 231 231 231 230 228 227 227 228 228 228 229 230 231 232 233 233 233 233 235 237 238 238 239 238 238 240 242 242 242 244 247 248 249 249 247 247 247 246 245 244 243 245 248 251 252 253 254 256 257 258 259 260 263 265 268 270 271
270 269 266 263 262 261 259 258 257 256 256 255 253 253 253 253 254 256 257 257 257 256 253 249 245 239 235 233 231 231 231 231 231 230 230 228 227 227 228 228 228 229 229 229 230 231 232 233 233 234 236 236 237 238 239 240 242 245 245 244 246 247 248 248 248 247 248 249 248 249 248 246 247 250 252 252 252 253 254 255 256 257 259 261 264 266 268 270
270 269 267 264 262 262 260 258 256 255 254 253 253 253 253 253 253 255 256 257 258 258 255 250 246 240 236 234 232 230 231 230 230 230 229 228 227 226 227 228 228 228 228 228 229 230 231 231 231 232 234 236 238 240 242 243 245 246 246 245 246 247 247 247 247 247 247 248 248 248 247 245 245 247 250 251 251 252 253 254 256 257 259 260 263 265 267 268
271 270 268 265 263 263 262 259 257 255 254 254 253 253 253 253 253 254 255 257 258 258 256 251 246 241 238 236 233 230 230 230 229 229 228 227 226 226 227 227 227 227 227 227 228 229 230 230 230 230 232 235 237 239 240 240 241 242 243 243 243 244 245 245 245 245 245 245 246 245 244 243 243 245 248 250 251 252 253 254 255 257 259 261 263 264 266 268
272 271 269 267 264 263 263 261 259 256 255 255 254 254 254 253 253 253 254 255 257 258 257 252 247 243 240 237 234 230 229 229 228 228 228 227 226 226 226 227 226 226 226 226 227 228 229 229 230 230 231 233 234 235 236 237 237 239 240 240 240 241 242 243 244 244 243 244 244 244 244 244 244 245 246 249 251 252 253 255 256 258 261 263 264 265 266 267
271 270 269 267 264 262 262 261 260 258 257 256 255 255 255 254 253 252 252 253 254 255 255 253 249 245 242 239 234 230 229 228 227 228 228 227 225 226 227 226 226 225 224 225 226 227 228 228 229 230 230 231 233 234 235 236 237 237 238 238 239 240 242 244 245 244 243 244 245 245 245 245 245 246 247 248 251 253 255 257 259 262 263 264 264 265 265 266
268 267 267 266 264 262 260 259 259 258 257 256 256 256 255 254 253 252 251 251 252 253 254 253 250 246 242 239 235 231 228 227 226 226 227 226 225 225 227 227 225 225 224 224 225 226 226 226 227 229 229 229 231 233 235 237 238 238 239 239 240 241 242 243 244 244 244 245 245 245 246 246 246 248 249 250 252 254 256 258 260 262 263 264 265 265 265 266
264 263 262 262 261 259 257 256 256 256 255 254 254 254 254 252 252 250 249 249 250 250 251 252 250 246 242 239 235 231 228 226 225 225 225 225 224 224 226 227 226 225 224 224 224 225 225 225 226 228 228 229 230 231 233 236 238 238 239 240 241 242 243 244 245 246 246 246 246 246 247 248 248 250 251 252 253 254 256 257 259 261 262 263 264 265 266 268
260 259 258 257 256 255 254 252 251 251 251 251 250 251 251 249 248 247 246 246 247 248 249 250 249 246 242 239 235 230 227 225 224 224 224 224 224 224 225 226 225 225 224 224 224 225 224 224 225 226 227 228 229 231 232 234 236 237 238 240 241 243 245 246 247 248 248 248 248 248 249 250 251 252 252 253 254 255 257 258 259 260 261 262 263 265 267 267
256 255 254 253 253 252 250 249 247 246 246 247 247 246 247 246 244 243 243 243 244 245 246 247 248 245 241 238 234 230 226 223 222 224 224 223 223 224 225 225 225 225 225 224 224 224 224 224 225 226 226 226 229 231 232 233 234 235 236 239 241 244 245 247 248 249 249 249 250 250 252 252 252 253 254 256 257 258 259 259 260 260 261 262 263 265 265 266
Height
10992 10992 10993 10993 10994 10994 10995 10995 10996 10996 10996 10996 10996 10996 10996 10997 10997 10997 10997 10997 10997 10996 10996 10995 10994 10994 10993 10992 10992 10992 10992 10991 10989 10988 10987 10987 10986 10984 10983 10981 10980 10979 10977 10976 10974 10973 10972 10970 10969 10967 10965 10963 10962 10960 10958 10957 10957 10957 10957 10958 10959 10961 10962 10964 10965 10966 10967 10968 10969 10970 10970 10971 10972 10972 10973 10974 10974 10975 10976 10977 10977 10978 10978 10978 10979 10979 10979 10980
10990 10990 10991 10991 10992 10992 10993 10993 10994 10994 10995 10994 10994 10995 10995 10996 10996 10996 10996 10996 10996 10996 10996 10996 10995 10994 10993 10992 10992 10992 10992 10991 10990 10989 10988 10988 10987 10986 10984 10983 10982 10980 10979 10977 10976 10974 10973 10972 10970 10969 10967 10965 10963 10961 10959 10957 10957 10957 10957 10957 10959 10960 10962 10963 10965 10966 10966 10967 10967 10968 10969 10970 10971 10972 10972 10973 10973 10974 10975 10976 10976 10976 10976 10977 10977 10977 10977 10978
10988 10988 10988 10989 10990 10990 10991 10991 10992 10992 10993 10993 10993 10993 10993 10994 10995 10995 10996 10996 10996 10995 10996 10995 10995 10994 10993 10992 10992 10991 10992 10992 10991 10990 10989 10989 10988 10987 10986 10985 10983 10982 10981 10979 10977 10976 10974 10973 10972 10970 10969 10967 10965 10962 10960 10959 10957 10956 10957 10957 10958 10960 10961 10963 10965 10966 10966 10966 10966 10967 10968 10969 10970 10971 10971 10972 10973 10973 10974 10975 10975 10975 10975 10976 10976 10976 10976 10976
10985 10985 10986 10986 10987 10988 10988 10989 10989 10990 10991 10991 10992 10992 10992 10992 10993 10993 10994 10995 10995 10995 10995 10995 10995 10994 10993 10992 10991 10991 10991 10991 10992 10991 10990 10989 10989 10988 10987 10986 10985 10983 10982 10981 10979 10977 10976 10974 10973 10971 10970 10969 10967 10964 10962 10960 10958 10957 10957 10957 10958 10959 10960 10962 10965 10966 10966 10965 10966 10966 10967 10968 10969 10970 10971 10972 10972 10972 10973 10974 10974 10975 10975 10975 10975 10975 10975 10975
10982 10983 10983 10984 10984 10985 10985 10986 10987 10987 10988 10989 10989 10990 10990 10990 10991 10991 10992 10993 10994 10994 10994 10994 10994 10994 10993 10993 10991 10990 10990 10990 10991 10991 10991 10990 10989 10989 10988 10987 10986 10985 10984 10982 10981 10979 10977 10975 10974 10972 10971 10970 10968 10966 10963 10960 10958 10958 10958 10958 10958 10959 10960 10962 10964 10965 10965 10965 10966 10967 10968 10969 10970 10971 10971 10972 10972 10972 10973 10973 10974 10974 10975 10975 10975 10975 10975 10975
10979 10979 10980 10981 10981 10982 10982 10983 10984 10984 10985 10986 10987 10987 10988 10988 10989 10989 10990 10990 10991 10992 10993 10993 10993 10993 10993 10992 10991 10990 10989 10989 10990 10991 10991 10990 10989 10989 10989 10988 10987 10986 10985 10984 10982 10981 10979 10977 10975 10974 10972 10971 10969 10967 10965 10962 10960 10959 10959 10960 10959 10959 10960 10962 10963 10964 10965 10965 10966 10967 10969 10970 10971 10971 10971 10971 10971 10972 10973 10973 10974 10974 10974 10974 10974 10974 10975 10975
10975 10976 10976 10977 10978 10979 10979 10980 10981 10981 10982 10983 10984 10985 10985 10986 10987 10987 10988 10988 10989 10990 10991 10991 10991 10992 10992 10991 10991 10990 10989 10988 10989 10990 10990 10990 10990 10989 10989 10989 10988 10987 10986 10985 10984 10982 10981 10979 10977 10975 10974 10972 10970 10968 10966 10964 10962 10961 10960 10961 10961 10961 10961 10962 10963 10964 10964 10965 10966 10968 10969 10970 10971 10971 10971 10971 10971 10972 10973 10973 10973 10973 10974 10974 10974 10974 10975 10975
10971 10971 10972 10973 10974 10975 10976 10977 10978 10978 10979 10980 10981 10982 10983 10983 10984 10985 10986 10986 10986 10987 10988 10989 10989 10990 10990 10990 10990 10989 10988 10987 10987 10988 10989 10990 10990 10989 10989 10989 10989 10988 10987 10986 10985 10984 10982 10980 10978 10977 10976 10974 10972 10970 10968 10966 10965 10964 10963 10963 10963 10961 10961 10962 10963 10964 10965 10966 10967 10969 10970 10970 10970 10970 10970 10971 10972 10973 10973 10973 10973 10973 10973 10974 10974 10974 10974 10975
10966 10967 10968 10969 10970 10971 10972 10973 10974 10975 10976 10977 10978 10979 10980 10980 10981 10982 10983 10983 10983 10984 10985 10986 10987 10987 10988 10988 10988 10988 10987 10986 10986 10987 10988 10989 10989 10989 10989 10989 10989 10988 10987 10987 10986 10985 10983 10982 10980 10978 10977 10976 10974 10972 10971 10969 10968 10967 10966 10966 10964 10961 10960 10962 10963 10964 10965 10967 10968 10969 10970 10970 10970 10971 10971 10971 10972 10973 10973 10973 10973 10973 10973 10973 10974 10974 10974 10974
10962 10963 10964 10964 10966 10966 10967 10968 10969 10971 10972 10974 10975 10975 10976 10977 10978 10979 10980 10980 10980 10981 10981 10982 10983 10984 10985 10985 10986 10986 10986 10985 10984 10985 10986 10987 10988 10988 10989 10989 10989 10988 10987 10987 10987 10986 10984 10983 10982 10980 10978 10977 10976 10974 10973 10972 10972 10970 10969 10968 10963 10959 10960 10962 10964 10965 10966 10967 10968 10968 10970 10971 10971 10971 10971 10972 10972 10973 10973 10973 10973 10972 10973 10973 10974 10974 10974 10974
10957 10958 10959 10960 10961 10962 10963 10964 10965 10966 10968 10970 10971 10972 10972 10973 10974 10975 10976 10976 10976 10977 10978 10978 10979 10980 10982 10982 10983 10984 10983 10982 10983 10983 10984 10985 10987 10987 10988 10988 10988 10988 10987 10987 10987 10986 10985 10984 10983 10981 10980 10978 10977 10975 10974 10974 10974 10972 10970 10967 10961 10958 10960 10964 10965 10967 10967 10968 10968 10969 10970 10971 10971 10971 10971 10971 10972 10972 10973 10973 10973 10973 10973 10973 10974 10974 10974 10974
10951 10952 10953 10955 10956 10957 10958 10959 10960 10962 10964 10966 10967 10968 10968 10969 10970 10971 10972 10972 10972 10973 10974 10975 10975 10977 10978 10978 10980 10982 10980 10979 10980 10982 10982 10983 10985 10986 10987 10987 10987 10987 10987 10987 10986 10986 10986 10985 10984 10983 10981 10980 10979 10977 10976 10975 10976 10975 10971 10966 10961 10959 10962 10965 10967 10968 10969 10970 10970 10971 10971 10971 10971 10970 10971 10971 10971 10972 10973 10974 10974 10974 10974 10974 10974 10974 10974 10975
10945 10946 10947 10948 10950 10951 10952 10953 10955 10957 10959 10962 10963 10964 10964 10964 10965 10966 10967 10967 10968 10969 10970 10971 10972 10974 10974 10975 10978 10977 10975 10977 10978 10980 10980 10981 10983 10985 10986 10986 10986 10986 10986 10986 10986 10986 10986 10985 10985 10984 10983 10981 10980 10979 10977 10977 10977 10977 10973 10968 10963 10962 10965 10968 10970 10971 10971 10972 10972 10972 10971 10971 10971 10970 10971 10971 10972 10973 10974 10974 10975 10975 10975 10975 10975 10975 10975 10975
10938 10939 10940 10942 10943 10945 10946 10947 10949 10952 10955 10957 10959 10959 10959 10960 10961 10962 10963 10963 10964 10965 10966 10967 10968 10970 10970 10972 10976 10973 10972 10975 10976 10978 10978 10978 10980 10982 10984 10985 10985 10985 10985 10985 10985 10986 10985 10985 10985 10985 10984 10982 10981 10980 10979 10978 10979 10978 10975 10970 10967 10966 10969 10972 10973 10973 10973 10974 10974 10973 10972 10971 10971 10971 10971 10972 10973 10974 10975 10976 10976 10976 10976 10976 10976 10976 10976 10976
10930 10932 10933 10935 10936 10938 10939 10940 10942 10945 10949 10952 10954 10954 10954 10954 10956 10957 10958 10958 10959 10960 10962 10963 10964 10966 10965 10969 10973 10968 10969 10973 10975 10976 10975 10976 10977 10979 10982 10983 10983 10983 10984 10984 10984 10985 10985 10985 10985 10985 10984 10983 10982 10981 10980 10980 10980 10979 10977 10973 10971 10970 10973 10975 10976 10976 10976 10976 10975 10973 10972 10972 10973 10972 10972 10973 10974 10975 10976 10976 10976 10977 10977 10977 10977 10977 10977 10977
10922 10923 10925 10927 10928 10930 10931 10932 10934 10938 10943 10946 10948 10948 10948 10948 10950 10952 10953 10953 10955 10956 10958 10959 10960 10961 10961 10966 10968 10963 10966 10971 10973 10972 10972 10973 10973 10976 10979 10980 10981 10981 10982 10982 10982 10983 10984 10984 10984 10984 10984 10983 10982 10982 10981 10981 10981 10980 10979 10976 10975 10975 10976 10978 10978 10978 10977 10977 10976 10974 10973 10974 10974 10974 10973 10974 10975 10976 10976 10976 10976 10977 10977 10977 10978 10978 10978 10978
10914 10915 10916 10918 10920 10922 10923 10924 10926 10930 10935 10939 10941 10942 10942 10941 10944 10946 10946 10948 10950 10952 10954 10955 10956 10956 10956 10961 10962 10959 10962 10967 10969 10969 10968 10969 10970 10972 10975 10976 10978 10979 10980 10980 10980 10981 10983 10983 10983 10983 10984 10983 10982 10982 10981 10981 10981 10981 10980 10979 10978 10978 10979 10980 10980 10980 10979 10978 10977 10976 10975 10975 10976 10976 10975 10976 10976 10977 10976 10976 10976 10977 10977 10978 10978 10978 10979 10979
10905 10906 10907 10908 10911 10913 10914 10915 10917 10921 10926 10931 10933 10934 10935 10935 10936 10939 10940 10942 10944 10946 10949 10950 10951 10951 10951 10956 10958 10955 10958 10963 10965 10964 10964 10965 10967 10969 10971 10974 10976 10977 10978 10978 10977 10979 10981 10981 10981 10982 10983 10983 10982 10982 10981 10981 10981 10981 10981 10981 10980 10980 10981 10981 10982 10982 10981 10981 10980 10978 10977 10977 10977 10977 10977 10977 10978 10977 10977 10977 10977 10977 10978 10978 10978 10979 10979 10979
10896 10897 10898 10899 10901 10903 10905 10906 10908 10912 10917 10922 10925 10925 10927 10928 10929 10932 10933 10935 10938 10940 10943 10944 10946 10946 10946 10949 10953 10951 10954 10959 10960 10959 10960 10962 10964 10966 10968 10971 10973 10975 10976 10974 10974 10977 10978 10979 10979 10980 10981 10982 10982 10981 10981 10980 10981 10981 10981 10982 10982 10981 10981 10982 10983 10983 10983 10982 10981 10980 10978 10978 10979 10979 10979 10979 10979 10978 10978 10977 10978 10978 10979 10979 10979 10979 10979 10979
10886 10887 10888 10889 10891 10893 10896 10896 10898 10902 10906 10912 10916 10917 10918 10920 10922 10924 10925 10927 10930 10933 10935 10938 10940 10940 10940 10943 10947 10948 10949 10953 10954 10954 10956 10958 10960 10962 10965 10968 10970 10972 10972 10971 10971 10974 10976 10976 10976 10978 10979 10980 10981 10980 10980 10979 10980 10980 10980 10981 10982 10982 10981 10981 10982 10982 10982 10982 10982 10981 10980 10979 10980 10981 10981 10980 10980 10979 10979 10978 10978 10979 10980 10980 10980 10980 10980 10980
10876 10877 10878 10878 10880 10883 10886 10886 10887 10892 10896 10900 10905 10907 10909 10911 10914 10916 10917 10918 10922 10926 10928 10930 10933 10933 10933 10937 10942 10943 10944 10948 10950 10949 10951 10953 10955 10957 10960 10964 10966 10968 10968 10967 10969 10972 10973 10971 10972 10976 10977 10978 10979 10979 10979 10979 10979 10979 10979 10980 10981 10981 10981 10981 10981 10981 10981 10981 10981 10981 10980 10980 10981 10982 10982 10981 10981 10980 10980 10980 10980 10980 10980 10980 10980 10981 10981 10982
10866 10867 10867 10868 10869 10872 10875 10876 10877 10880 10884 10889 10894 10897 10899 10902 10904 10907 10909 10908 10911 10918 10919 10921 10927 10926 10924 10930 10935 10938 10940 10943 10943 10943 10946 10949 10951 10953 10955 10959 10962 10962 10963 10964 10967 10969 10968 10965 10967 10973 10975 10976 10977 10977 10978 10978 10977 10978 10977 10978 10979 10980 10981 10980 10980 10980 10980 10980 10980 10981 10981 10981 10981 10982 10982 10982 10982 10981 10980 10980 10980 10981 10981 10981 10981 10982 10982 10982
10857 10857 10857 10857 10858 10861 10864 10865 10866 10869 10873 10877 10881 10886 10890 10892 10894 10898 10901 10900 10898 10906 10912 10914 10919 10917 10915 10924 10930 10934 10935 10934 10935 10938 10941 10944 10946 10948 10951 10954 10956 10957 10959 10961 10963 10964 10962 10959 10964 10970 10973 10974 10975 10975 10976 10977 10976 10976 10976 10976 10977 10978 10979 10979 10979 10979 10980 10980 10980 10980 10980 10981 10981 10982 10982 10982 10982 10981 10981 10981 10981 10981 10981 10981 10981 10982 10982 10982
10849 10849 10848 10848 10848 10850 10853 10854 10856 10859 10861 10865 10868 10873 10878 10882 10885 10888 10893 10892 10885 10891 10905 10908 10908 10906 10908 10917 10924 10928 10927 10925 10929 10932 10936 10939 10940 10943 10946 10949 10951 10952 10955 10957 10958 10959 10955 10955 10961 10968 10970 10971 10972 10973 10974 10974 10975 10975 10975 10974 10974 10975 10977 10977 10978 10978 10978 10979 10979 10979 10979 10980 10980 10981 10982 10982 10982 10981 10981 10981 10981 10982 10982 10982 10982 10982 10982 10981
10840 10840 10840 10839 10839 10840 10842 10844 10845 10848 10850 10853 10856 10860 10865 10869 10874 10878 10883 10885 10876 10875 10890 10899 10898 10897 10900 10909 10918 10920 10919 10919 10921 10923 10929 10932 10933 10937 10941 10943 10947 10948 10950 10951 10954 10955 10949 10950 10959 10964 10966 10967 10968 10969 10970 10971 10973 10973 10973 10973 10972 10974 10974 10974 10976 10976 10977 10977 10978 10978 10978 10979 10979 10980 10981 10981 10981 10981 10980 10980 10981 10981 10982 10982 10982 10982 10981 10981
10832 10832 10831 10830 10830 10830 10832 10834 10835 10838 10840 10842 10845 10848 10852 10856 10862 10868 10871 10876 10869 10860 10872 10887 10891 10889 10890 10900 10910 10913 10914 10912 10910 10914 10923 10927 10926 10930 10934 10938 10942 10943 10945 10946 10949 10951 10944 10946 10956 10960 10961 10963 10964 10966 10966 10967 10969 10969 10970 10971 10972 10973 10972 10972 10973 10974 10975 10976 10976 10977 10977 10977 10978 10978 10979 10980 10980 10980 10980 10980 10980 10981 10981 10982 10982 10981 10981 10981
10823 10823 10822 10822 10822 10821 10822 10824 10827 10829 10829 10831 10834 10836 10840 10843 10849 10856 10859 10866 10860 10848 10856 10872 10880 10882 10883 10890 10900 10907 10907 10900 10899 10908 10917 10918 10918 10923 10928 10933 10936 10937 10939 10941 10946 10947 10940 10941 10951 10955 10956 10959 10960 10961 10961 10963 10965 10964 10966 10969 10970 10971 10972 10971 10971 10971 10973 10974 10975 10975 10976 10976 10977 10977 10978 10979 10979 10979 10979 10980 10980 10981 10981 10981 10981 10981 10980 10980
10814 10814 10813 10813 10814 10813 10812 10814 10819 10821 10820 10820 10823 10825 10828 10831 10838 10843 10847 10854 10847 10835 10844 10857 10867 10875 10877 10880 10888 10897 10898 10891 10893 10902 10906 10908 10911 10915 10922 10927 10929 10930 10932 10936 10941 10941 10933 10935 10945 10949 10951 10955 10955 10954 10955 10958 10960 10959 10962 10967 10968 10970 10971 10971 10970 10969 10970 10972 10972 10973 10974 10974 10975 10976 10977 10977 10977 10977 10978 10979 10979 10980 10980 10980 10980 10980 10980 10979
10806 10806 10805 10804 10805 10805 10802 10804 10810 10813 10811 10810 10812 10816 10818 10820 10826 10830 10834 10841 10831 10822 10833 10845 10853 10864 10869 10871 10877 10885 10889 10883 10884 10892 10896 10900 10905 10909 10914 10918 10920 10923 10926 10931 10935 10933 10929 10930 10938 10944 10948 10950 10949 10948 10950 10954 10953 10954 10960 10964 10965 10967 10969 10969 10969 10968 10969 10969 10968 10969 10971 10972 10973 10973 10975 10976 10976 10976 10977 10977 10978 10978 10978 10978 10979 10979 10978 10978
10798 10798 10797 10795 10796 10797 10794 10796 10802 10804 10802 10801 10803 10805 10807 10810 10814 10818 10824 10825 10814 10810 10823 10833 10839 10850 10858 10862 10866 10872 10877 10874 10874 10882 10888 10891 10896 10901 10905 10908 10913 10917 10921 10926 10929 10928 10925 10925 10932 10940 10945 10945 10943 10943 10947 10949 10947 10950 10957 10960 10962 10964 10966 10967 10968 10967 10968 10967 10963 10965 10968 10969 10970 10971 10972 10974 10974 10975 10976 10976 10976 10976 10976 10976 10976 10977 10977 10976
10790 10790 10790 10788 10787 10787 10786 10789 10793 10793 10791 10793 10793 10794 10797 10800 10803 10808 10811 10804 10797 10802 10813 10820 10827 10838 10846 10850 10854 10861 10864 10864 10866 10874 10879 10882 10886 10892 10897 10901 10906 10911 10916 10922 10924 10923 10921 10922 10928 10935 10939 10940 10939 10940 10943 10944 10942 10947 10954 10956 10958 10960 10962 10965 10965 10966 10967 10963 10960 10964 10967 10967 10967 10968 10969 10971 10971 10972 10974 10974 10975 10975 10974 10974 10974 10974 10974 10974
10782 10782 10781 10780 10779 10777 10778 10782 10783 10782 10781 10782 10784 10785 10787 10790 10795 10798 10794 10786 10788 10796 10802 10809 10817 10826 10834 10837 10843 10850 10853 10854 10859 10865 10870 10872 10877 10883 10888 10893 10898 10903 10910 10916 10917 10917 10918 10918 10921 10927 10932 10934 10934 10935 10938 10939 10938 10943 10949 10951 10954 10956 10958 10961 10962 10963 10964 10959 10957 10962 10965 10964 10964 10966 10967 10968 10968 10969 10970 10971 10971 10972 10972 10971 10972 10972 10972 10971
10773 10773 10772 10772 10772 10769 10769 10772 10772 10772 10772 10771 10774 10777 10777 10782 10787 10784 10777 10775 10782 10789 10793 10800 10807 10814 10822 10825 10831 10838 10842 10843 10848 10854 10859 10862 10867 10873 10877 10882 10888 10894 10901 10906 10907 10910 10912 10911 10912 10919 10926 10929 10930 10931 10933 10935 10934 10937 10942 10946 10948 10950 10953 10956 10957 10958 10959 10956 10955 10960 10964 10961 10959 10962 10964 10965 10966 10966 10966 10967 10967 10968 10968 10968 10969 10969 10969 10969
10764 10764 10763 10763 10764 10763 10760 10761 10762 10762 10763 10762 10764 10768 10771 10776 10777 10770 10765 10769 10775 10780 10786 10792 10797 10802 10808 10811 10817 10825 10829 10832 10837 10843 10848 10853 10859 10864 10868 10874 10880 10887 10892 10895 10899 10903 10905 10905 10907 10913 10919 10922 10925 10926 10927 10928 10928 10929 10934 10938 10942 10945 10948 10950 10951 10952 10953 10952 10953 10958 10962 10958 10953 10958 10962 10961 10962 10963 10962 10963 10963 10963 10963 10964 10965 10966 10966 10966
10755 10755 10754 10753 10755 10755 10752 10751 10752 10753 10754 10754 10753 10759 10765 10767 10763 10758 10758 10762 10765 10771 10777 10781 10785 10790 10795 10799 10804 10811 10817 10820 10824 10830 10837 10843 10850 10855 10860 10865 10871 10877 10882 10887 10894 10897 10899 10902 10902 10904 10909 10912 10916 10917 10916 10918 10921 10922 10926 10932 10938 10941 10941 10942 10945 10947 10948 10950 10952 10955 10959 10955 10950 10954 10958 10957 10957 10958 10959 10959 10959 10959 10958 10958 10961 10962 10963 10964
10746 10745 10744 10744 10744 10745 10744 10742 10741 10743 10745 10745 10745 10751 10755 10754 10751 10749 10750 10753 10755 10760 10766 10771 10775 10779 10783 10788 10793 10799 10805 10808 10812 10819 10826 10833 10841 10845 10849 10854 10860 10867 10872 10878 10884 10888 10893 10897 10894 10894 10900 10904 10907 10909 10907 10910 10915 10917 10919 10928 10933 10932 10931 10934 10939 10942 10943 10947 10950 10952 10954 10953 10950 10951 10953 10953 10953 10953 10954 10955 10955 10954 10953 10953 10955 10957 10958 10959
10737 10735 10734 10735 10735 10734 10734 10733 10732 10733 10735 10736 10739 10743 10743 10742 10742 10740 10740 10743 10745 10750 10756 10761 10766 10769 10772 10776 10782 10787 10792 10795 10801 10809 10815 10822 10830 10836 10841 10846 10850 10857 10863 10867 10873 10878 10885 10888 10883 10884 10892 10895 10896 10899 10900 10903 10909 10911 10915 10922 10923 10920 10923 10930 10934 10938 10940 10944 10947 10948 10950 10950 10950 10949 10948 10949 10949 10949 10951 10952 10952 10950 10948 10948 10950 10951 10953 10955
10727 10724 10724 10725 10725 10724 10723 10723 10723 10723 10724 10728 10732 10733 10732 10732 10730 10727 10729 10734 10737 10741 10747 10751 10756 10759 10761 10766 10770 10775 10779 10782 10788 10797 10804 10812 10822 10828 10832 10836 10840 10847 10851 10855 10861 10868 10874 10877 10875 10876 10882 10884 10884 10889 10893 10897 10903 10908 10912 10914 10913 10914 10921 10926 10930 10934 10937 10940 10942 10943 10944 10947 10948 10946 10944 10945 10946 10946 10948 10949 10949 10947 10945 10944 10945 10946 10948 10950
10717 10713 10713 10714 10714 10714 10714 10712 10712 10714 10715 10720 10723 10722 10722 10721 10717 10717 10722 10726 10729 10733 10738 10742 10746 10749 10752 10755 10758 10762 10767 10770 10775 10785 10792 10802 10812 10817 10821 10825 10830 10835 10839 10843 10851 10858 10864 10868 10869 10869 10872 10873 10874 10882 10891 10896 10899 10903 10905 10905 10907 10911 10917 10921 10925 10929 10932 10935 10938 10939 10941 10944 10945 10943 10942 10943 10943 10943 10944 10945 10945 10945 10942 10942 10942 10942 10943 10944
10706 10703 10702 10702 10702 10703 10703 10702 10702 10704 10706 10710 10711 10711 10712 10710 10708 10709 10713 10717 10721 10724 10728 10732 10735 10739 10742 10744 10745 10749 10754 10758 10763 10772 10781 10792 10802 10806 10808 10814 10819 10824 10827 10833 10840 10846 10852 10859 10862 10861 10861 10864 10869 10881 10892 10892 10890 10893 10896 10898 10901 10905 10910 10914 10918 10923 10927 10930 10933 10935 10938 10940 10940 10938 10938 10939 10940 10940 10940 10940 10941 10941 10939 10938 10939 10939 10939 10939
10695 10692 10690 10690 10690 10690 10692 10692 10692 10693 10695 10700 10701 10700 10701 10701 10699 10700 10703 10709 10712 10715 10719 10723 10726 10729 10731 10732 10733 10735 10741 10747 10752 10761 10772 10782 10790 10794 10796 10802 10808 10812 10816 10823 10831 10838 10844 10852 10855 10851 10851 10860 10869 10878 10884 10881 10877 10881 10887 10891 10894 10897 10901 10906 10911 10917 10920 10924 10927 10929 10932 10934 10933 10933 10933 10934 10935 10935 10935 10936 10937 10938 10936 10934 10934 10935 10935 10935
10681 10679 10678 10679 10678 10677 10680 10682 10682 10682 10685 10689 10689 10689 10690 10691 10692 10691 10694 10700 10704 10706 10709 10712 10715 10718 10719 10721 10721 10722 10729 10738 10743 10752 10762 10771 10779 10783 10785 10790 10797 10800 10806 10815 10825 10831 10835 10840 10844 10842 10846 10858 10864 10865 10869 10869 10866 10870 10878 10884 10887 10889 10894 10901 10907 10912 10913 10917 10920 10922 10926 10929 10928 10927 10928 10930 10931 10931 10932 10932 10933 10933 10932 10930 10929 10930 10931 10930
10668 10665 10665 10668 10666 10664 10668 10670 10670 10672 10674 10676 10677 10679 10681 10683 10683 10683 10685 10689 10693 10694 10698 10702 10705 10707 10708 10709 10710 10713 10721 10730 10736 10743 10751 10760 10768 10773 10774 10779 10786 10791 10798 10809 10817 10821 10823 10829 10837 10839 10843 10849 10851 10850 10856 10859 10858 10863 10874 10882 10884 10886 10892 10897 10901 10904 10905 10910 10914 10917 10922 10926 10924 10923 10924 10926 10927 10928 10928 10928 10928 10927 10926 10925 10925 10925 10925 10925
10654 10650 10650 10655 10654 10652 10655 10658 10658 10661 10663 10664 10667 10669 10670 10672 10674 10674 10674 10676 10680 10683 10688 10693 10695 10696 10698 10698 10701 10706 10714 10721 10727 10733 10742 10751 10759 10763 10764 10768 10774 10780 10790 10801 10808 10810 10814 10823 10832 10833 10832 10835 10837 10840 10848 10856 10859 10863 10873 10880 10881 10882 10885 10888 10892 10895 10899 10905 10908 10912 10919 10923 10920 10918 10918 10920 10922 10922 10921 10922 10921 10921 10920 10921 10921 10921 10921 10920
10637 10635 10635 10640 10641 10639 10641 10645 10646 10649 10651 10652 10655 10657 10658 10661 10663 10663 10662 10665 10669 10673 10678 10682 10684 10685 10687 10688 10693 10700 10706 10712 10718 10724 10733 10741 10747 10751 10752 10756 10763 10772 10783 10793 10797 10798 10804 10814 10821 10822 10823 10827 10834 10841 10851 10859 10860 10861 10868 10873 10874 10874 10875 10878 10882 10886 10892 10899 10901 10906 10913 10915 10913 10912 10911 10913 10915 10915 10915 10915 10915 10914 10915 10916 10917 10917 10916 10915
10618 10618 10618 10622 10626 10625 10626 10630 10633 10635 10639 10641 10643 10645 10646 10649 10651 10651 10652 10655 10658 10662 10667 10672 10673 10675 10677 10680 10686 10692 10697 10703 10709 10716 10723 10729 10736 10740 10740 10744 10753 10764 10774 10782 10784 10786 10794 10803 10809 10813 10817 10824 10833 10841 10846 10848 10849 10851 10857 10862 10864 10864 10865 10867 10870 10877 10886 10891 10893 10899 10904 10904 10905 10906 10905 10906 10907 10908 10909 10909 10909 10909 10910 10911 10912 10911 10910 10909
10600 10600 10600 10602 10609 10612 10612 10614 10618 10621 10625 10628 10630 10632 10634 10636 10638 10640 10642 10645 10647 10651 10656 10661 10663 10666 10668 10671 10676 10682 10688 10695 10701 10706 10712 10719 10726 10729 10730 10733 10742 10753 10763 10769 10771 10776 10784 10794 10801 10807 10813 10819 10826 10831 10832 10833 10837 10841 10846 10850 10852 10853 10853 10855 10860 10871 10878 10880 10885 10892 10894 10895 10899 10899 10899 10900 10900 10902 10903 10903 10903 10904 10906 10907 10906 10905 10905 10904
10581 10582 10581 10582 10589 10596 10597 10597 10601 10606 10609 10613 10617 10618 10620 10623 10625 10629 10633 10635 10637 10639 10644 10650 10653 10656 10659 10661 10667 10674 10680 10687 10694 10697 10702 10710 10717 10720 10720 10723 10730 10740 10748 10754 10759 10765 10775 10786 10794 10799 10806 10813 10817 10820 10821 10823 10828 10832 10836 10840 10842 10843 10845 10848 10854 10863 10868 10872 10881 10886 10884 10887 10892 10893 10894 10895 10895 10897 10898 10897 10899 10900 10901 10901 10900 10899 10899 10898
10561 10563 10563 10563 10568 10575 10579 10581 10585 10589 10593 10599 10603 10605 10607 10610 10613 10618 10622 10624 10625 10626 10632 10640 10642 10645 10649 10653 10659 10667 10672 10678 10685 10689 10692 10699 10706 10710 10709 10711 10720 10729 10735 10742 10749 10754 10764 10777 10785 10790 10798 10805 10807 10810 10812 10814 10819 10824 10828 10831 10834 10836 10838 10842 10848 10855 10860 10866 10875 10877 10876 10882 10886 10887 10889 10891 10892 10893 10894 10894 10895 10896 10895 10894 10893 10893 10893 10893
10538 10541 10543 10545 10548 10552 10558 10564 10569 10573 10577 10583 10588 10590 10593 10597 10601 10606 10610 10612 10613 10616 10622 10628 10631 10634 10640 10645 10652 10658 10663 10668 10675 10679 10682 10687 10693 10697 10697 10702 10712 10719 10725 10733 10739 10745 10757 10770 10776 10781 10788 10794 10797 10800 10803 10806 10810 10816 10821 10824 10827 10829 10832 10837 10842 10848 10853 10861 10867 10869 10871 10877 10881 10883 10885 10885 10886 10888 10889 10890 10891 10891 10890 10888 10887 10886 10887 10888
10515 10518 10520 10524 10527 10530 10535 10543 10551 10557 10560 10564 10571 10576 10579 10583 10588 10593 10597 10599 10602 10606 10611 10616 10620 10625 10632 10637 10643 10649 10654 10660 10666 10669 10672 10676 10682 10686 10688 10693 10703 10709 10714 10722 10729 10737 10751 10760 10765 10768 10776 10785 10790 10791 10795 10799 10801 10805 10811 10816 10819 10823 10828 10833 10838 10842 10848 10854 10859 10861 10866 10874 10877 10877 10877 10878 10880 10882 10883 10884 10884 10884 10884 10883 10881 10881 10881 10881
10492 10495 10498 10502 10506 10509 10513 10521 10530 10538 10543 10546 10554 10561 10565 10568 10573 10579 10584 10587 10591 10595 10599 10604 10609 10615 10622 10628 10634 10640 10645 10652 10656 10657 10660 10666 10673 10677 10680 10685 10693 10699 10704 10712 10719 10729 10740 10748 10753 10757 10767 10780 10785 10784 10788 10789 10786 10792 10804 10812 10816 10820 10824 10828 10831 10835 10841 10846 10850 10856 10864 10870 10870 10869 10871 10872 10874 10876 10877 10877 10876 10877 10878 10877 10876 10875 10875 10875